Wind_Speed
2 2 3 4 4 5 5 5 6 7 8 8 9 9 9 9 9 10 10 10 9 9 9 9 8 8 8 8 9 9 8 8 7 7 7 7 7 7 7 8 8 8 8
2 3 3 4 4 4 4 5 6 7 7 8 8 9 9 9 9 9 9 9 9 9 8 8 8 8 8 8 8 8 7 7 6 6 6 7 7 8 8 8 8 8 8
3 3 4 4 4 4 5 5 6 7 7 8 8 8 8 9 10 10 9 9 8 8 8 7 7 7 7 7 7 7 6 6 6 6 6 6 7 7 8 7 7 7 7
3 4 4 4 4 3 4 5 6 7 8 8 8 8 8 8 9 9 9 8 8 8 7 7 7 7 7 6 6 5 5 5 6 6 6 6 7 7 7 7 6 6 6
3 3 4 4 4 4 5 5 6 7 7 7 8 8 8 8 8 8 8 8 8 7 7 7 7 6 6 5 5 5 5 5 5 5 5 5 6 6 6 6 6 6 5
3 3 4 5 4 5 5 5 6 6 7 7 7 7 7 7 7 8 8 8 8 7 7 7 6 6 5 5 4 4 4 4 4 4 4 4 5 5 5 5 5 5 4
5 4 5 4 4 5 4 5 6 6 6 7 6 6 6 6 6 7 7 7 7 7 6 6 6 6 5 4 4 4 4 4 4 4 4 3 4 4 4 4 3 3 3
5 4 4 4 3 4 3 5 5 6 6 7 6 5 5 6 7 6 7 7 7 6 6 5 5 5 5 4 3 3 3 3 3 3 3 3 3 3 3 2 2 2 2
6 5 4 4 3 3 4 5 5 6 6 6 6 5 5 6 6 7 7 7 6 6 5 5 4 4 3 2 2 2 2 3 3 3 3 3 3 3 2 2 1 1 1
8 7 5 4 3 3 4 4 4 5 6 6 6 6 5 5 5 6 6 6 5 5 5 5 4 3 3 2 1 1 2 2 3 2 2 2 2 2 2 2 2 2 1
9 8 7 6 5 4 3 4 4 4 5 5 6 6 5 5 5 6 6 5 5 4 5 4 3 3 2 1 1 1 1 1 2 2 2 2 1 1 2 2 3 3 3
9 9 8 7 6 5 4 3 4 4 4 4 4 5 4 5 5 5 5 5 4 4 4 4 3 3 2 1 1 1 1 1 2 1 2 2 2 2 3 4 4 4 4
11 10 9 8 6 5 4 3 4 3 4 3 2 3 3 4 4 5 5 5 4 4 4 4 3 3 3 2 1 1 1 1 2 2 2 2 2 3 3 4 5 6 6
12 11 11 10 8 7 5 3 3 3 3 2 2 3 3 3 3 4 4 4 5 4 4 4 3 3 3 3 2 2 2 3 3 2 2 2 3 4 4 4 5 6 7
13 12 12 11 10 9 7 5 3 2 2 2 2 2 2 2 3 3 3 4 4 4 4 4 3 3 3 3 3 3 3 3 3 3 3 3 4 4 5 5 6 6 7
13 13 12 11 11 10 9 7 6 4 3 2 1 1 1 0 1 2 3 3 4 4 4 4 4 3 3 3 3 3 3 3 3 3 3 4 4 4 5 5 6 7 7
13 12 12 11 11 11 10 8 7 6 4 3 2 1 1 1 1 1 2 3 4 4 4 4 4 4 3 3 3 4 4 3 4 4 4 4 4 5 5 6 7 7 7
12 12 11 10 10 10 9 8 7 6 5 4 3 2 1 2 1 1 2 3 3 4 4 4 5 5 4 4 5 5 4 4 4 4 5 5 5 5 6 6 7 7 7
12 11 11 10 10 9 9 9 8 7 6 5 4 3 2 2 2 3 2 2 3 3 4 5 5 6 6 6 5 5 6 5 5 6 6 5 5 6 7 7 8 8 8
11 11 10 10 9 9 9 8 7 7 7 7 5 4 3 3 3 4 3 3 3 4 4 5 6 7 6 6 6 7 7 7 7 7 6 6 6 6 7 7 8 8 8
10 10 10 9 9 9 8 8 6 6 6 7 6 4 3 3 3 4 4 4 3 4 5 6 6 6 6 7 7 7 7 8 7 7 8 8 7 7 8 8 8 8 8
9 9 9 8 8 8 8 8 7 6 6 7 6 5 4 4 3 4 5 4 4 4 5 5 5 5 6 6 7 7 8 7 7 8 8 9 9 9 9 9 9 9 9
9 9 9 9 8 8 8 8 7 7 7 7 7 6 6 5 4 4 5 5 5 5 5 6 6 6 6 6 7 8 8 8 9 9 9 9 9 9 10 10 10 10 10
9 9 9 9 9 9 9 9 8 9 8 8 7 7 6 5 6 6 6 6 6 6 6 7 7 7 7 7 8 8 9 9 9 9 9 9 9 9 10 10 11 11 11
10 10 10 10 9 10 10 10 10 10 10 9 8 7 7 6 7 7 7 7 7 8 7 7 7 7 7 8 8 9 9 10 10 9 9 9 9 9 10 10 10 11 11
11 11 11 11 10 11 11 11 12 11 11 10 9 9 8 8 8 9 9 8 9 9 9 8 8 8 8 9 9 9 9 9 10 10 10 11 10 10 10 10 10 10 11
Wind_Direction
128 122 115 120 115 118 127 144 145 143 140 137 137 142 145 143 141 137 132 128 127 124 118 113 112 110 110 108 105 102 99 96 93 88 90 90 89 90 93 96 95 92 91
104 107 116 123 119 125 135 143 147 147 143 142 139 138 143 144 140 135 133 131 129 127 124 119 112 113 112 109 106 104 100 93 92 86 85 85 89 93 93 95 95 92 88
109 108 118 124 124 131 135 141 150 153 150 150 150 141 140 142 139 134 130 128 127 127 126 124 118 117 116 112 109 106 102 97 92 88 86 85 91 95 92 91 91 89 88
103 114 120 127 133 139 140 145 148 152 150 152 150 145 139 137 134 132 131 128 127 126 128 129 124 121 119 116 115 112 109 103 95 93 94 95 100 99 93 89 86 87 88
106 111 120 118 131 139 147 148 146 142 147 147 144 147 146 140 139 138 137 130 125 125 125 128 129 124 122 123 121 120 120 115 103 100 105 106 106 103 95 90 89 89 87
88 96 108 111 125 129 138 141 148 145 149 152 150 152 152 143 142 144 141 134 129 128 129 129 138 132 128 131 131 126 124 128 123 118 114 110 107 107 102 93 92 90 84
79 87 96 102 126 132 140 145 148 151 156 157 157 157 155 153 147 147 148 143 136 136 134 137 140 141 133 130 135 138 135 138 138 143 132 120 117 116 110 101 90 86 81
77 82 85 94 112 133 142 147 151 157 157 158 163 162 158 159 160 157 155 153 145 143 142 145 145 140 141 139 133 140 151 146 143 145 149 139 134 132 123 116 103 87 85
63 69 81 84 95 113 129 133 149 154 154 158 162 160 159 160 159 162 157 156 154 155 152 152 154 153 149 150 139 125 131 136 137 144 152 151 147 150 147 156 169 177 143
61 62 70 77 78 99 113 125 135 143 145 152 157 159 158 162 162 162 159 160 164 164 165 164 163 161 153 156 151 139 128 128 138 145 159 168 157 163 182 196 214 229 236
55 56 65 72 71 81 96 125 132 140 147 158 164 169 172 172 166 165 164 168 169 171 180 184 182 170 166 159 151 148 157 165 162 174 189 187 194 192 208 219 234 247 257
54 52 58 69 73 77 83 112 127 131 132 152 169 175 179 180 178 174 174 180 178 177 189 198 198 197 193 195 169 140 197 228 205 204 213 225 232 229 226 232 241 251 265
54 53 54 57 64 67 70 85 105 114 127 133 150 164 176 182 187 190 189 191 184 186 191 202 213 215 210 220 219 238 252 228 226 228 233 245 252 251 246 246 248 255 267
51 52 51 50 53 56 62 75 98 103 114 124 145 165 164 177 193 200 194 195 199 202 207 210 219 225 226 230 242 256 269 262 258 254 269 262 261 263 262 261 264 265 269
48 49 51 51 51 52 57 61 73 87 100 117 140 156 172 199 207 207 206 209 208 216 222 224 223 230 227 234 240 257 276 266 264 265 269 269 274 273 269 270 276 276 280
44 45 46 49 50 51 56 60 64 71 75 75 86 121 111 278 212 218 216 205 202 212 216 221 224 236 242 253 253 256 268 267 268 271 276 276 279 283 281 281 285 285 286
39 40 41 45 48 49 50 52 55 56 58 61 64 65 66 36 322 232 218 219 213 221 228 232 239 245 250 261 263 262 262 270 269 276 276 276 281 284 285 288 289 291 291
33 35 36 40 42 41 44 48 53 49 47 52 59 67 41 17 357 324 237 235 226 234 243 249 251 255 266 272 273 272 266 272 274 275 275 275 277 281 284 290 290 290 290
24 27 31 36 37 38 39 43 50 45 40 41 39 42 33 19 10 3 322 261 248 258 253 252 257 262 266 270 275 275 274 276 278 278 276 273 273 277 279 286 290 290 289
17 18 23 29 32 31 30 32 41 42 37 36 26 29 32 26 18 9 355 325 278 267 262 258 263 264 266 271 277 279 280 283 283 279 280 276 276 280 281 280 283 287 287
7 11 14 18 22 21 21 19 25 32 29 26 24 21 21 13 11 3 357 348 319 291 279 271 270 268 271 277 281 283 283 282 279 278 279 281 280 280 280 279 282 284 285
354 358 0 1 4 7 6 7 8 16 19 19 19 18 10 3 1 350 348 351 341 319 299 283 279 274 278 282 284 287 290 286 281 283 284 283 282 280 281 280 281 282 285
335 343 345 345 347 350 349 351 355 358 2 7 8 7 4 356 345 343 345 341 336 328 314 297 285 277 281 286 290 290 287 284 286 288 288 286 280 278 279 280 281 282 284
318 325 332 334 336 338 337 339 344 350 349 350 350 352 351 344 336 332 332 331 327 322 317 313 302 290 288 292 292 292 289 286 287 290 291 291 289 285 281 281 280 281 284
306 309 315 319 321 324 326 328 329 335 338 338 340 338 336 331 328 329 329 324 317 315 312 308 308 305 305 301 296 294 291 290 289 292 295 293 293 290 288 287 286 286 286
296 301 303 303 305 310 316 320 321 323 326 326 326 324 320 320 321 318 318 316 313 309 306 301 299 298 301 306 304 301 301 301 297 292 291 291 291 290 289 288 289 290 290
Height
5866 5866 5866 5867 5867 5867 5868 5868 5869 5870 5870 5871 5872 5873 5874 5875 5877 5878 5879 5880 5881 5882 5883 5884 5885 5886 5887 5888 5888 5889 5889 5890 5890 5891 5891 5892 5893 5893 5893 5894 5894 5895 5896
5867 5867 5867 5867 5868 5868 5869 5870 5870 5871 5872 5872 5873 5874 5875 5877 5878 5879 5880 5881 5883 5884 5885 5886 5886 5887 5888 5889 5889 5890 5890 5891 5892 5892 5893 5893 5893 5894 5894 5895 5895 5896 5897
5867 5867 5868 5868 5869 5869 5870 5870 5871 5872 5873 5874 5875 5876 5877 5878 5879 5880 5881 5883 5884 5885 5886 5887 5888 5888 5889 5890 5890 5891 5892 5892 5893 5893 5894 5894 5894 5895 5895 5896 5897 5898 5898
5868 5868 5869 5869 5870 5870 5871 5871 5872 5873 5874 5875 5876 5877 5878 5879 5880 5881 5883 5884 5885 5886 5887 5888 5889 5889 5890 5891 5892 5892 5893 5893 5894 5894 5894 5895 5895 5896 5896 5897 5898 5899 5899
5869 5869 5869 5870 5871 5871 5872 5872 5873 5874 5875 5876 5877 5878 5879 5880 5882 5883 5884 5885 5886 5887 5888 5888 5890 5891 5891 5892 5893 5893 5894 5894 5895 5895 5896 5896 5896 5897 5898 5898 5899 5900 5900
5870 5870 5870 5870 5871 5872 5873 5873 5874 5875 5876 5877 5878 5879 5880 5881 5883 5884 5885 5885 5887 5888 5889 5890 5890 5891 5892 5893 5893 5894 5894 5895 5895 5896 5896 5897 5897 5898 5899 5899 5900 5900 5901
5871 5871 5871 5871 5872 5873 5873 5874 5875 5876 5877 5878 5879 5880 5881 5882 5883 5884 5885 5886 5887 5889 5889 5890 5891 5892 5893 5893 5894 5894 5895 5895 5896 5896 5897 5898 5898 5899 5899 5900 5901 5901 5902
5873 5873 5872 5873 5873 5873 5874 5875 5875 5876 5877 5878 5880 5881 5882 5883 5884 5885 5886 5887 5888 5889 5890 5891 5892 5892 5893 5894 5894 5895 5895 5895 5896 5897 5897 5898 5898 5899 5900 5901 5901 5902 5902
5874 5874 5874 5874 5874 5874 5875 5876 5877 5877 5878 5879 5880 5881 5883 5884 5885 5886 5887 5888 5889 5890 5891 5892 5893 5893 5893 5894 5894 5895 5895 5896 5896 5897 5897 5898 5899 5899 5900 5901 5902 5902 5903
5876 5876 5875 5875 5875 5875 5876 5877 5878 5878 5879 5880 5881 5882 5883 5885 5886 5886 5887 5888 5890 5891 5892 5893 5893 5894 5894 5894 5894 5895 5895 5896 5897 5897 5898 5898 5899 5899 5900 5901 5902 5902 5903
5878 5878 5877 5876 5876 5877 5877 5878 5879 5879 5880 5881 5882 5883 5884 5885 5886 5887 5888 5889 5890 5891 5892 5893 5894 5894 5894 5895 5895 5895 5895 5896 5896 5897 5898 5898 5899 5899 5900 5901 5901 5902 5903
5881 5880 5879 5878 5878 5879 5879 5879 5880 5880 5881 5882 5883 5884 5885 5886 5886 5887 5888 5889 5890 5891 5892 5893 5894 5894 5895 5895 5895 5895 5896 5896 5896 5897 5898 5898 5899 5899 5900 5900 5901 5902 5902
5883 5882 5881 5881 5880 5880 5880 5880 5881 5881 5882 5883 5883 5884 5885 5886 5887 5888 5888 5889 5890 5891 5892 5893 5894 5894 5895 5895 5895 5896 5896 5896 5897 5897 5898 5898 5898 5899 5899 5900 5900 5901 5901
5885 5885 5884 5883 5882 5882 5882 5882 5882 5883 5883 5884 5884 5885 5886 5886 5887 5888 5889 5890 5891 5891 5892 5893 5894 5894 5895 5895 5895 5896 5896 5896 5897 5897 5897 5898 5898 5898 5899 5899 5899 5900 5900
5888 5887 5886 5885 5884 5884 5883 5883 5883 5884 5884 5885 5885 5886 5886 5887 5887 5888 5888 5889 5890 5891 5892 5893 5893 5894 5894 5895 5895 5895 5896 5896 5896 5897 5897 5897 5898 5898 5898 5898 5899 5899 5899
5890 5889 5888 5887 5886 5886 5885 5885 5885 5885 5885 5886 5886 5886 5887 5887 5887 5888 5888 5889 5890 5891 5891 5892 5893 5893 5894 5894 5895 5895 5895 5895 5896 5896 5896 5897 5897 5897 5897 5898 5898 5898 5898
5892 5891 5890 5889 5888 5888 5887 5886 5886 5886 5886 5886 5887 5887 5887 5887 5887 5888 5888 5889 5890 5890 5891 5891 5892 5893 5893 5894 5894 5894 5894 5895 5895 5895 5895 5896 5896 5896 5896 5896 5897 5896 5896
5895 5893 5892 5891 5890 5889 5888 5888 5888 5887 5887 5887 5887 5887 5888 5888 5888 5888 5888 5888 5889 5890 5890 5891 5892 5892 5893 5893 5894 5894 5894 5894 5894 5894 5894 5894 5894 5894 5895 5895 5895 5895 5895
5896 5895 5894 5893 5892 5891 5890 5890 5889 5889 5888 5888 5888 5888 5888 5888 5888 5888 5888 5888 5888 5889 5889 5890 5891 5892 5892 5892 5893 5893 5893 5893 5893 5893 5893 5893 5893 5893 5892 5892 5893 5893 5893
5898 5897 5896 5895 5894 5893 5892 5891 5891 5890 5890 5889 5889 5888 5888 5888 5888 5888 5888 5888 5888 5888 5889 5889 5890 5891 5891 5891 5892 5892 5892 5892 5891 5891 5891 5891 5891 5891 5891 5891 5891 5891 5891
5899 5898 5897 5896 5895 5894 5893 5892 5891 5891 5891 5890 5889 5889 5889 5889 5889 5889 5888 5888 5888 5888 5888 5889 5889 5889 5890 5890 5890 5890 5890 5890 5890 5890 5890 5890 5890 5890 5890 5890 5890 5889 5889
5899 5899 5898 5897 5896 5895 5894 5893 5892 5892 5891 5890 5890 5889 5889 5889 5889 5889 5889 5888 5888 5888 5888 5888 5888 5888 5888 5889 5889 5889 5889 5889 5889 5888 5888 5888 5888 5887 5887 5887 5887 5887 5887
5899 5899 5898 5897 5896 5895 5895 5894 5893 5892 5891 5891 5890 5890 5889 5889 5889 5889 5888 5888 5888 5888 5888 5887 5887 5887 5887 5887 5887 5887 5887 5887 5887 5887 5886 5885 5885 5885 5885 5885 5885 5885 5884
5899 5898 5897 5897 5896 5895 5894 5894 5893 5892 5892 5891 5890 5890 5889 5889 5888 5888 5888 5888 5887 5887 5887 5886 5886 5885 5885 5885 5885 5885 5886 5885 5885 5885 5884 5883 5883 5883 5882 5882 5882 5882 5881
5897 5897 5896 5896 5896 5895 5894 5894 5893 5892 5892 5891 5890 5890 5889 5888 5888 5887 5887 5887 5886 5886 5885 5885 5885 5884 5884 5884 5884 5883 5883 5883 5882 5882 5882 5881 5881 5880 5879 5879 5879 5879 5878
5896 5895 5895 5895 5894 5894 5893 5893 5892 5891 5891 5890 5890 5889 5888 5888 5887 5886 5886 5885 5885 5884 5884 5883 5883 5883 5882 5882 5882 5881 5881 5881 5880 5879 5879 5879 5878 5877 5877 5876 5876 5876 5875